Location: Mentone
(34.5413°N, 85.5351°W)
Time: 17:07:56
(UTC-06:00)

ATLAS 5 CENTAUR R/B - Visible Passes

Search period start: 14 February 2016 00:00
Search period end: 24 February 2016 00:00
Orbit: 673 x 988 km, 63.4° (Epoch: 13 February)

Date Brightness Start Highest point End Pass type
(mag) Time Alt. Az. Time Alt. Az. Time Alt. Az.
14 Feb 3.9 04:13:12 10° SSE 04:17:10 26° ESE 04:21:18 10° NE visible
14 Feb 2.6 05:57:15 10° WSW 06:01:38 32° NW 06:06:18 10° NNE visible
15 Feb 3.9 03:56:08 17° SSE 03:58:21 24° ESE 04:02:21 10° ENE visible
15 Feb 2.5 05:38:19 10° WSW 05:42:46 35° NW 05:47:31 10° NNE visible
16 Feb 3.9 03:39:14 22° ESE 03:39:33 22° ESE 03:43:24 10° ENE visible
16 Feb 2.4 05:20:53 19° WSW 05:23:54 37° NW 05:28:43 10° NNE visible
17 Feb 4.3 03:22:00 19° E 03:22:00 19° E 03:24:25 10° ENE visible
17 Feb 2.3 05:03:37 32° W 05:05:02 40° NW 05:09:55 10° NNE visible
18 Feb 4.7 03:04:31 13° ENE 03:04:31 13° ENE 03:05:26 10° ENE visible
18 Feb 2.2 04:46:08 42° NW 04:46:11 42° NW 04:51:07 10° NNE visible
19 Feb 2.6 04:28:27 39° NNW 04:28:27 39° NNW 04:32:18 10° NNE visible
20 Feb 3.2 04:10:39 30° N 04:10:39 30° N 04:13:29 10° NNE visible
21 Feb 3.8 03:52:44 22° NNE 03:52:44 22° NNE 03:54:41 10° NNE visible
22 Feb 4.2 03:34:44 16° NNE 03:34:44 16° NNE 03:35:52 10° NNE visible
23 Feb 4.6 03:16:39 12° NNE 03:16:39 12° NNE 03:17:02 10° NNE visible
